Time,TemperatureF,DewpointF,PressureIn,WindDirection,WindDirectionDegrees,WindSpeedMPH,WindSpeedGustMPH,Humidity,HourlyPrecipIn,Conditions,Clouds,dailyrainin,SoftwareType,DateUTC
2013-09-04 00:04:00,65.0,65.0,29.70,West,275,0.0,1.0,99,0.01,,,0.00,weatherlink.com 1.10,2013-09-04 04:04:00,
2013-09-04 00:19:00,64.6,64.0,29.70,West,274,0.0,0.0,99,0.01,,,0.00,weatherlink.com 1.10,2013-09-04 04:19:00,
2013-09-04 00:34:00,64.6,64.0,29.70,West,274,0.0,0.0,99,0.01,,,0.00,weatherlink.com 1.10,2013-09-04 04:34:00,
2013-09-04 00:49:00,64.3,64.0,29.70,West,274,0.0,0.0,99,0.00,,,0.00,weatherlink.com 1.10,2013-09-04 04:49:00,
2013-09-04 01:04:00,64.0,64.0,29.70,West,274,0.0,1.0,99,0.00,,,0.00,weatherlink.com 1.10,2013-09-04 05:04:00,
2013-09-04 01:19:00,64.3,64.0,29.70,East,82,0.0,1.0,100,0.00,,,0.00,weatherlink.com 1.10,2013-09-04 05:19:00,
2013-09-04 01:34:00,64.4,64.0,29.70,ESE,115,0.0,1.0,100,0.00,,,0.00,weatherlink.com 1.10,2013-09-04 05:34:00,
2013-09-04 01:49:00,64.3,64.0,29.70,ESE,113,0.0,0.0,100,0.00,,,0.00,weatherlink.com 1.10,2013-09-04 05:49:00,
2013-09-04 02:05:00,64.0,64.0,29.71,ESE,113,0.0,0.0,99,0.00,,,0.00,weatherlink.com 1.10,2013-09-04 06:05:00,
2013-09-04 02:20:00,63.7,64.0,29.71,ESE,113,0.0,0.0,99,0.00,,,0.00,weatherlink.com 1.10,2013-09-04 06:20:00,
2013-09-04 02:35:00,63.3,63.0,29.71,ESE,105,0.0,0.0,99,0.00,,,0.00,weatherlink.com 1.10,2013-09-04 06:35:00,
2013-09-04 02:50:00,63.0,63.0,29.72,ESE,106,0.0,0.0,99,0.00,,,0.00,weatherlink.com 1.10,2013-09-04 06:50:00,
2013-09-04 03:05:00,62.6,62.0,29.72,ESE,105,0.0,0.0,99,0.00,,,0.00,weatherlink.com 1.10,2013-09-04 07:05:00,
2013-09-04 03:20:00,62.4,62.0,29.72,East,98,0.0,1.0,99,0.00,,,0.00,weatherlink.com 1.10,2013-09-04 07:20:00,
2013-09-04 03:35:00,62.0,62.0,29.73,East,98,0.0,0.0,99,0.00,,,0.00,weatherlink.com 1.10,2013-09-04 07:35:00,
2013-09-04 03:50:00,61.8,62.0,29.73,East,98,0.0,0.0,99,0.00,,,0.00,weatherlink.com 1.10,2013-09-04 07:50:00,
2013-09-04 04:05:00,61.5,61.0,29.73,East,98,0.0,0.0,99,0.00,,,0.00,weatherlink.com 1.10,2013-09-04 08:05:00,
2013-09-04 04:20:00,61.3,61.0,29.73,East,97,0.0,0.0,99,0.00,,,0.00,weatherlink.com 1.10,2013-09-04 08:20:00,
2013-09-04 04:35:00,61.0,61.0,29.74,East,97,0.0,0.0,99,0.00,,,0.00,weatherlink.com 1.10,2013-09-04 08:35:00,
2013-09-04 04:50:00,60.8,61.0,29.73,East,97,0.0,1.0,99,0.00,,,0.00,weatherlink.com 1.10,2013-09-04 08:50:00,
2013-09-04 05:05:00,60.6,60.0,29.74,East,98,0.0,0.0,99,0.00,,,0.00,weatherlink.com 1.10,2013-09-04 09:05:00,
2013-09-04 05:20:00,60.6,60.0,29.74,East,97,0.0,0.0,99,0.00,,,0.00,weatherlink.com 1.10,2013-09-04 09:20:00,
2013-09-04 05:35:00,60.2,60.0,29.74,East,85,0.0,0.0,99,0.00,,,0.00,weatherlink.com 1.10,2013-09-04 09:35:00,
2013-09-04 05:50:00,59.9,60.0,29.75,East,84,0.0,1.0,99,0.00,,,0.00,weatherlink.com 1.10,2013-09-04 09:50:00,
2013-09-04 06:05:00,59.8,60.0,29.75,East,85,0.0,0.0,99,0.00,,,0.00,weatherlink.com 1.10,2013-09-04 10:05:00,
2013-09-04 06:20:00,59.7,60.0,29.76,East,85,0.0,1.0,99,0.00,,,0.00,weatherlink.com 1.10,2013-09-04 10:20:00,
2013-09-04 06:35:00,59.5,59.0,29.76,East,85,0.0,0.0,99,0.00,,,0.00,weatherlink.com 1.10,2013-09-04 10:35:00,
2013-09-04 06:50:00,59.7,60.0,29.77,East,85,0.0,1.0,100,0.00,,,0.00,weatherlink.com 1.10,2013-09-04 10:50:00,
2013-09-04 07:05:00,59.7,60.0,29.77,East,83,0.0,1.0,100,0.00,,,0.00,weatherlink.com 1.10,2013-09-04 11:05:00,
2013-09-04 07:20:00,59.9,60.0,29.78,East,96,0.0,1.0,100,0.00,,,0.00,weatherlink.com 1.10,2013-09-04 11:20:00,
2013-09-04 07:35:00,60.3,60.0,29.78,East,96,0.0,1.0,100,0.00,,,0.00,weatherlink.com 1.10,2013-09-04 11:35:00,
2013-09-04 07:50:00,60.9,61.0,29.78,East,99,0.0,1.0,100,0.00,,,0.00,weatherlink.com 1.10,2013-09-04 11:50:00,
2013-09-04 08:05:00,62.0,62.0,29.78,East,94,0.0,3.0,100,0.00,,,0.00,weatherlink.com 1.10,2013-09-04 12:05:00,
2013-09-04 08:20:00,63.2,63.0,29.78,East,89,0.0,2.0,99,0.00,,,0.00,weatherlink.com 1.10,2013-09-04 12:20:00,
2013-09-04 08:35:00,63.8,63.0,29.78,ENE,59,0.0,2.0,97,0.00,,,0.00,weatherlink.com 1.10,2013-09-04 12:35:00,
2013-09-04 08:50:00,64.8,64.0,29.78,ENE,61,3.0,3.0,97,0.00,,,0.00,weatherlink.com 1.10,2013-09-04 12:50:00,
2013-09-04 09:05:00,65.8,65.0,29.79,East,87,0.0,4.0,96,0.00,,,0.00,weatherlink.com 1.10,2013-09-04 13:05:00,
2013-09-04 09:20:00,66.9,64.0,29.78,ENE,72,2.0,4.0,90,0.00,,,0.00,weatherlink.com 1.10,2013-09-04 13:20:00,
2013-09-04 09:35:00,69.9,63.0,29.78,East,87,1.0,3.0,79,0.00,,,0.00,weatherlink.com 1.10,2013-09-04 13:35:00,
2013-09-04 09:50:00,71.2,63.0,29.78,SE,126,0.0,2.0,74,0.00,,,0.00,weatherlink.com 1.10,2013-09-04 13:50:00,
2013-09-04 10:05:00,72.0,62.0,29.78,East,80,0.0,3.0,71,0.00,,,0.00,weatherlink.com 1.10,2013-09-04 14:05:00,
2013-09-04 10:21:00,72.6,61.0,29.78,ENE,75,1.0,3.0,68,0.00,,,0.00,weatherlink.com 1.10,2013-09-04 14:21:00,
2013-09-04 10:36:00,73.2,62.0,29.78,SE,146,1.0,5.0,67,0.00,,,0.00,weatherlink.com 1.10,2013-09-04 14:36:00,
2013-09-04 10:51:00,73.7,60.0,29.78,NE,56,1.0,6.0,63,0.00,,,0.00,weatherlink.com 1.10,2013-09-04 14:51:00,
2013-09-04 11:06:00,74.4,60.0,29.78,SE,139,1.0,5.0,62,0.00,,,0.00,weatherlink.com 1.10,2013-09-04 15:06:00,
2013-09-04 11:21:00,75.5,61.0,29.78,ENE,74,2.0,5.0,60,0.00,,,0.00,weatherlink.com 1.10,2013-09-04 15:21:00,
2013-09-04 11:36:00,76.4,61.0,29.79,NW,326,0.0,6.0,59,0.00,,,0.00,weatherlink.com 1.10,2013-09-04 15:36:00,
2013-09-04 11:51:00,76.8,61.0,29.78,ENE,60,3.0,4.0,58,0.00,,,0.00,weatherlink.com 1.10,2013-09-04 15:51:00,
2013-09-04 12:06:00,76.8,61.0,29.78,ENE,70,1.0,6.0,58,0.00,,,0.00,weatherlink.com 1.10,2013-09-04 16:06:00,
2013-09-04 12:21:00,77.0,60.0,29.77,WSW,256,3.0,5.0,57,0.00,,,0.00,weatherlink.com 1.10,2013-09-04 16:21:00,
2013-09-04 12:36:00,76.4,62.0,29.77,NW,321,1.0,6.0,61,0.00,,,0.00,weatherlink.com 1.10,2013-09-04 16:36:00,
2013-09-04 12:51:00,76.0,61.0,29.77,West,270,9.0,12.0,59,0.00,,,0.00,weatherlink.com 1.10,2013-09-04 16:51:00,
2013-09-04 13:06:00,76.6,61.0,29.76,West,270,4.0,8.0,58,0.00,,,0.00,weatherlink.com 1.10,2013-09-04 17:06:00,
2013-09-04 13:21:00,71.5,63.0,29.76,WNW,291,12.0,13.0,75,0.00,,,0.00,weatherlink.com 1.10,2013-09-04 17:21:00,
2013-09-04 13:36:00,69.6,62.0,29.76,SE,142,15.0,17.0,78,0.00,,,0.00,weatherlink.com 1.10,2013-09-04 17:36:00,
2013-09-04 13:51:00,68.7,62.0,29.76,ESE,117,14.0,-999.0,80,-99.99,,,0.00,weatherlink.com 1.10,2013-09-04 17:51:00,
2013-09-04 14:06:00,68.9,63.0,29.76,SE,135,8.0,15.0,81,0.00,,,0.00,weatherlink.com 1.10,2013-09-04 18:06:00,
2013-09-04 14:21:00,69.4,63.0,29.76,SE,139,10.0,15.0,80,0.00,,,0.00,weatherlink.com 1.10,2013-09-04 18:21:00,
2013-09-04 14:36:00,69.2,63.0,29.76,SE,132,12.0,15.0,81,0.00,,,0.00,weatherlink.com 1.10,2013-09-04 18:36:00,
2013-09-04 14:51:00,69.7,63.0,29.76,SE,131,11.0,15.0,80,0.00,,,0.00,weatherlink.com 1.10,2013-09-04 18:51:00,
2013-09-04 15:06:00,69.8,63.0,29.76,SE,139,11.0,15.0,80,0.00,,,0.00,weatherlink.com 1.10,2013-09-04 19:06:00,
2013-09-04 15:21:00,69.2,63.0,29.76,SE,145,11.0,17.0,81,0.00,,,0.00,weatherlink.com 1.10,2013-09-04 19:21:00,
2013-09-04 15:36:00,70.7,64.0,29.76,SE,136,6.0,13.0,78,0.00,,,0.00,weatherlink.com 1.10,2013-09-04 19:36:00,
2013-09-04 15:51:00,70.1,64.0,29.76,SSE,147,8.0,13.0,81,0.00,,,0.00,weatherlink.com 1.10,2013-09-04 19:51:00,
2013-09-04 16:06:00,70.0,64.0,29.76,SSE,148,7.0,11.0,81,0.00,,,0.00,weatherlink.com 1.10,2013-09-04 20:06:00,
2013-09-04 16:21:00,69.3,64.0,29.76,SSE,149,10.0,14.0,82,0.00,,,0.00,weatherlink.com 1.10,2013-09-04 20:21:00,
2013-09-04 16:36:00,69.2,63.0,29.76,SSE,148,9.0,12.0,81,0.00,,,0.00,weatherlink.com 1.10,2013-09-04 20:36:00,
2013-09-04 16:51:00,70.0,64.0,29.77,SSE,156,4.0,13.0,80,0.00,,,0.00,weatherlink.com 1.10,2013-09-04 20:51:00,
2013-09-04 17:06:00,70.7,64.0,29.77,SE,146,5.0,6.0,78,0.00,,,0.00,weatherlink.com 1.10,2013-09-04 21:06:00,
2013-09-04 17:21:00,71.8,64.0,29.77,SSE,155,1.0,4.0,75,0.00,,,0.00,weatherlink.com 1.10,2013-09-04 21:21:00,
2013-09-04 17:36:00,72.6,63.0,29.78,SSE,162,1.0,4.0,73,0.00,,,0.00,weatherlink.com 1.10,2013-09-04 21:36:00,
2013-09-04 17:51:00,72.6,62.0,29.78,South,184,0.0,1.0,70,0.00,,,0.00,weatherlink.com 1.10,2013-09-04 21:51:00,
2013-09-04 18:06:00,72.4,60.0,29.78,South,191,0.0,1.0,66,0.00,,,0.00,weatherlink.com 1.10,2013-09-04 22:06:00,
2013-09-04 18:21:00,72.9,58.0,29.79,SW,218,0.0,3.0,60,0.00,,,0.00,weatherlink.com 1.10,2013-09-04 22:21:00,
2013-09-04 18:36:00,72.6,58.0,29.80,SW,222,0.0,1.0,61,0.00,,,0.00,weatherlink.com 1.10,2013-09-04 22:36:00,
2013-09-04 18:51:00,72.1,58.0,29.80,SW,229,0.0,1.0,62,0.00,,,0.00,weatherlink.com 1.10,2013-09-04 22:51:00,
2013-09-04 19:06:00,71.2,58.0,29.80,SW,224,0.0,1.0,63,0.00,,,0.00,weatherlink.com 1.10,2013-09-04 23:06:00,
2013-09-04 19:21:00,70.0,58.0,29.81,SW,224,0.0,0.0,66,0.00,,,0.00,weatherlink.com 1.10,2013-09-04 23:21:00,
2013-09-04 19:36:00,69.1,59.0,29.81,SW,224,0.0,0.0,70,0.00,,,0.00,weatherlink.com 1.10,2013-09-04 23:36:00,
2013-09-04 19:51:00,68.0,58.0,29.81,SW,224,0.0,0.0,71,0.00,,,0.00,weatherlink.com 1.10,2013-09-04 23:51:00,
2013-09-04 20:06:00,67.2,60.0,29.82,SW,224,0.0,0.0,77,0.00,,,0.00,weatherlink.com 1.10,2013-09-05 00:06:00,
2013-09-04 20:21:00,65.2,60.0,29.83,SW,224,0.0,0.0,82,0.00,,,0.00,weatherlink.com 1.10,2013-09-05 00:21:00,
2013-09-04 20:36:00,64.4,60.0,29.83,SW,224,0.0,0.0,84,0.00,,,0.00,weatherlink.com 1.10,2013-09-05 00:36:00,
2013-09-04 20:51:00,63.4,60.0,29.84,SW,220,0.0,0.0,87,0.00,,,0.00,weatherlink.com 1.10,2013-09-05 00:51:00,
2013-09-04 21:06:00,62.6,59.0,29.84,SW,221,0.0,0.0,89,0.00,,,0.00,weatherlink.com 1.10,2013-09-05 01:06:00,
2013-09-04 21:21:00,62.3,59.0,29.85,SW,221,0.0,0.0,90,0.00,,,0.00,weatherlink.com 1.10,2013-09-05 01:21:00,
2013-09-04 21:36:00,62.0,59.0,29.84,SW,221,0.0,0.0,90,0.00,,,0.00,weatherlink.com 1.10,2013-09-05 01:36:00,
2013-09-04 21:51:00,61.8,60.0,29.84,SW,220,0.0,1.0,92,0.00,,,0.00,weatherlink.com 1.10,2013-09-05 01:51:00,
2013-09-04 22:06:00,61.7,59.0,29.84,SW,220,0.0,0.0,92,0.00,,,0.00,weatherlink.com 1.10,2013-09-05 02:06:00,
2013-09-04 22:22:00,61.7,60.0,29.85,SW,221,0.0,0.0,93,0.00,,,0.00,weatherlink.com 1.10,2013-09-05 02:22:00,
2013-09-04 22:37:00,62.0,60.0,29.86,SSW,208,0.0,0.0,93,0.00,,,0.00,weatherlink.com 1.10,2013-09-05 02:37:00,
2013-09-04 22:52:00,61.9,60.0,29.85,SSW,208,0.0,0.0,93,0.00,,,0.00,weatherlink.com 1.10,2013-09-05 02:52:00,
2013-09-04 23:07:00,61.9,60.0,29.85,SSW,208,0.0,0.0,93,0.00,,,0.00,weatherlink.com 1.10,2013-09-05 03:07:00,
2013-09-04 23:22:00,62.0,60.0,29.85,SSW,208,0.0,0.0,94,0.00,,,0.00,weatherlink.com 1.10,2013-09-05 03:22:00,
2013-09-04 23:37:00,62.1,60.0,29.85,SSW,208,0.0,0.0,94,0.00,,,0.00,weatherlink.com 1.10,2013-09-05 03:37:00,
2013-09-04 23:52:00,62.3,61.0,29.86,SSW,208,0.0,0.0,94,0.00,,,0.00,weatherlink.com 1.10,2013-09-05 03:52:00,